User: anonymous   Login
Location: Darlington Observatory
(36.4817°N, 105.8156°W)
Time: 21:22:46
(UTC-06:00)
Language:

Cosmos 2278 Rocket - Orbit

View from above orbital plane
View from above orbital plane
View from above satellite
View from above satellite

Ground track
Ground track

The orbit data is extracted from the following two-line orbital elements,

1 23088U 94023B   17086.46202480 -.00000054 +00000-0 -31729-5 0  9995
2 23088 070.9988 093.5839 0005325 244.3307 115.7266 14.14656945183712
Epoch (UTC): 27 March 2017 11:05:18
Eccentricity: 0.0005325
inclination: 70.9988°
perigee height: 839 km
apogee height: 847 km
right ascension of ascending node: 93.5839°
argument of perigee: 244.3307°
revolutions per day: 14.14656945
mean anomaly at epoch: 115.7266°
orbit number at epoch: 18371

The dashed part of the orbit path shows where the satellite is in the earth's shadow,  

DLR